#timestamp,LO_Frequency,Hit 
1506182415.7,286047004.2,N
1506182435.6,286047002.7,N
1506182455.4,286047000.6,N
1506182475.2,286047001.9,N
1506182495.0,286047002.1,N
1506182496.0,286047002.1,N
1506182515.8,286047000.3,N
1506182535.6,286047002.8,N
1506182555.4,286046998.4,N
1506182575.3,286047002.7,N
1506182595.1,286047004.3,N
1506182615.8,286047001.9,N
1506182635.7,286047001.6,N
1506182655.5,286047004.2,N
1506182675.3,286047004.1,N
1506182695.2,286047001.9,N
1506182715.9,286047003.9,N
1506182735.7,286047003.2,N
1506182755.6,286047003.4,N
1506182775.4,286047005.0,N
1506182795.2,286047007.6,P
1506182815.1,286047003.8,N
1506182816.0,286047003.8,N
1506182835.8,286047003.4,N
1506182855.6,286047002.9,N
1506182875.5,286047003.9,N
1506182895.3,286047002.2,N
1506182915.1,286047003.8,N
1506182935.9,286047005.4,P
1506182955.7,286047002.1,N
1506182975.5,286046999.9,N
1506182995.4,286046999.8,N
1506183015.2,286047001.9,N
1506183035.0,286046999.7,N
1506183035.9,286046999.7,N
1506183055.8,286047000.3,N
1506183075.6,286046999.4,N
1506183095.4,286046999.2,N
1506183115.2,286046999.0,N
1506183135.1,286046998.7,N
1506183136.0,286046998.7,N
1506183155.8,286047000.9,N
1506183175.6,286047000.4,N
1506183195.5,286047004.4,N
1506183215.3,286047002.6,N
1506183235.1,286046999.7,N
1506183255.9,286047000.6,N
1506183275.7,286047000.1,N
1506183295.5,286047001.7,N
1506183315.4,286047001.9,N
1506183335.2,286047003.8,N
1506183355.0,286047001.9,N
1506183355.9,286047001.9,N
1506183375.8,286046999.8,N
1506183395.6,286047003.8,N
1506183415.4,286047001.6,N
1506183435.2,286047002.1,N
1506183455.1,286047003.7,N
1506183456.0,286047003.7,N
1506183475.8,286047003.8,N
1506183495.7,286047005.8,P
1506183515.5,286047002.8,N
1506183535.3,286047002.0,N
1506183555.1,286047001.3,N
1506183575.9,286047002.2,N
1506183595.7,286047000.7,N
1506183615.5,286047001.6,N
1506183635.4,286047005.6,P
1506183655.2,286046998.7,N
1506183675.0,286046997.8,N
1506183675.9,286046997.8,N
1506183695.8,286047001.7,N
1506183715.6,286047005.0,N
1506183735.4,286047007.6,N
1506183755.3,286047006.8,N
1506183775.1,286047005.0,N
1506183776.0,286047005.0,N
1506183795.8,286047003.6,N
1506183815.7,286047004.7,N
1506183835.5,286047008.3,N
1506183855.3,286047006.9,N
1506183875.2,286047003.8,N
1506183895.9,286047001.3,N
1506183915.7,286047004.2,N
1506183935.6,286047001.4,N
1506183955.4,286047002.8,N
1506183975.2,286047003.5,N
1506183995.0,286047005.8,N
1506183995.9,286047005.8,N
1506184015.8,286047009.2,P
1506184035.6,286047001.9,N
1506184055.5,286047005.9,N
1506184075.3,286047007.3,N
1506184095.1,286047004.8,N
1506184115.8,286047004.1,N
1506184135.7,286047005.9,N
1506184155.5,286047003.1,N
1506184175.3,286047003.8,N
1506184195.2,286047003.2,N
1506184215.0,286047004.6,N
1506184215.9,286047004.6,N
1506184235.8,286047007.6,P
1506184255.6,286047002.5,N
1506184275.4,286047001.3,N
1506184295.2,286047000.2,N
1506184315.1,286046999.6,N
1506184316.0,286046999.6,N
1506184335.8,286046998.7,N
1506184355.6,286047000.1,N
1506184375.5,286046995.4,N
1506184395.3,286046996.7,N
1506184415.1,286046995.5,N
1506184435.9,286046997.5,N
1506184455.7,286046995.3,N
1506184475.5,286046996.7,N
1506184495.4,286046999.6,N
1506184515.2,286047001.2,N
1506184535.0,286046993.3,N
1506184535.9,286046993.3,N
1506184555.8,286046995.4,N
1506184575.6,286046997.9,N
1506184595.4,286046999.6,N
1506184615.2,286046997.8,N
1506184635.1,286046998.2,N
1506184636.0,286046998.2,N
1506184655.8,286047002.5,N
1506184675.6,286047003.1,N
1506184695.5,286047005.9,N
1506184715.3,286047003.9,N
1506184735.1,286047005.9,N
1506184755.9,286047005.3,N
1506184775.7,286047005.5,N
1506184795.5,286047003.2,N
1506184815.4,286047003.6,N
1506184835.2,286047001.7,N
1506184855.0,286047001.7,N
1506184855.9,286047001.7,N
1506184875.8,286047001.4,N
1506184895.6,286047005.1,N
1506184915.4,286047007.6,N
1506184935.2,286047003.8,N
1506184955.1,286047009.0,N
1506184956.0,286047009.0,N
1506184975.8,286047001.4,N
1506184995.6,286047002.1,N
1506185015.5,286047004.0,N
1506185035.3,286047004.5,N
1506185055.1,286047004.2,N
1506185075.9,286047003.7,N
1506185095.7,286047006.7,N
1506185115.5,286047004.5,N
1506185135.4,286047005.1,N
1506185155.2,286047008.5,P
1506185175.0,286047009.0,P
1506185175.9,286047009.0,P
1506185195.8,286047009.1,P
1506185215.6,286047000.5,N
1506185235.4,286046999.5,N
1506185255.3,286046996.8,N
1506185275.1,286046998.0,N
1506185295.8,286046999.4,N
1506185315.7,286046996.6,N
1506185335.5,286046997.4,N
1506185355.3,286046997.5,N
1506185375.2,286046995.7,N
1506185395.9,286046996.4,N
1506185415.7,286046992.3,N
1506185435.6,286046992.4,N
1506185455.4,286046996.2,N
1506185475.2,286046995.4,N
1506185495.0,286046997.6,N
1506185495.9,286046997.6,N
1506185515.8,286046998.8,N
1506185535.6,286046999.4,N
1506185555.4,286046996.5,N
1506185575.3,286046999.3,N
1506185595.1,286047000.6,N
1506185615.8,286046995.4,N
1506185635.7,286046996.3,N
1506185655.5,286046995.9,N
1506185675.3,286046999.6,N
1506185695.2,286046998.1,N
1506185715.9,286047000.7,N
1506185735.7,286046999.8,N
1506185755.6,286046998.4,N
1506185775.4,286046994.9,N
1506185795.2,286046997.1,N
1506185815.0,286046996.8,N
1506185815.9,286046996.8,N
1506185835.8,286046999.4,N
1506185855.6,286046998.2,N
1506185875.4,286047002.5,N
1506185895.3,286047001.4,N
1506185915.1,286047002.1,N
1506185935.8,286046998.4,N
1506185955.7,286046998.5,N
1506185975.5,286047000.6,N
1506185995.3,286047002.0,N
